Starlink 5123

operational
NORAD ID: 53979 Int'l Des: 2022-125 Owner: SPXS Country: US Constellation: starlink
LEOCIRCULAR

About Starlink 5123

Description loading...

Live Position

Loading 3D Globe...

Upcoming Passes

Altitude History

Altitude vs Time

uPlot chart will show altitude changes over time

Two-Line Element Set

1 53979U 22125R 25257.36706202 .00001181 00000-0 92264-4 0 9990
2 53979 53.2170 290.6617 0001329 84.1101 276.0043 15.08840674162772
Epoch: Sep 14, 2025 • Age: 27 hours

Current Status

Altitude 540.2 km
Velocity 7.59 km/s
Sub-Earth Point 3.26°N, 115.54°E
Launch Date Oct 5, 2022
Age 2.9 years
Type internet

Technical Details

Classification Payload
Mass 305.00 kg
Dry Mass 290.00 kg
Total Mass 305.00 kg
Length 0.20 m
Diameter 2.80 m
Span 9.00 m
Shape Box + pan
Manufacturer SPXS
Bus Type Starlink
Phase Status In Orbit
Owner/State SPXS/US

Large Constellations

Loading constellations...